Weather History for KPRN - October, 2012

Change the Weather History Date:

Thursday, October 4, 2012

  Actual Average Record
Temperature  
Mean Temperature 68 °F -  
Max Temperature 82 °F 83 °F 96 °F (1986)
Min Temperature 55 °F 57 °F 40 °F (1974)
Cooling Degree Days 4    
Growing Degree Days 18 (Base 50)    
Moisture  
Dew Point 59 °F    
Average Humidity 82    
Maximum Humidity 100    
Minimum Humidity 42    
Precipitation  
Precipitation 0.00 in - - ()
Sea Level Pressure  
Sea Level Pressure 30.21 in    
Wind  
Wind Speed 1 mph (NE)    
Max Wind Speed 10 mph    
Max Gust Speed -    
Visibility 9 miles    
Events Fog    
Averages and records for this station are not official NWS values.
T = Trace of Precipitation, MM = Missing Value Source: NWS Daily Summary

Daily Weather History Graph

Daily Weather History Graph

Search for Another Location

Airport or City:

Trip Planner

Search our weather history database for the weather conditions in past years. The results will help you decide how hot, cold, wet, or windy it might be!

Date:

Astronomy

Oct. 04, 2012 Rise Set
Actual Time 6:42 AM CDT 6:26 PM CDT
Civil Twilight 6:18 AM CDT 6:51 PM CDT
Nautical Twilight 5:49 AM CDT 7:19 PM CDT
Astronomical Twilight 5:21 AM CDT 7:47 PM CDT
Moon 9:18 PM CDT (10/4) 10:43 AM CDT (10/4)
Length of Visible Light 12h 33m
Length of Day
11h 44m
Waning Gibbous, 82% of the Moon is Illuminated
Oct 4
Waning Gibbous
Oct 8
Last Quarter
Oct 15
New
Oct 21
First Quarter
Oct 29
Full

Hourly Weather History & Observations

Time (CDT) Temp. Heat Index Dew Point Humidity Pressure Visibility Wind Dir Wind Speed Gust Speed Precip Events Conditions
12:56 AM 57.9 °F - 55.9 °F 93% 30.17 in 10.0 mi Calm Calm - N/A   Clear
1:56 AM 57.9 °F - 55.0 °F 90% 30.17 in 10.0 mi Calm Calm - N/A   Clear
2:56 AM 55.9 °F - 54.0 °F 93% 30.18 in 10.0 mi Calm Calm - N/A   Clear
3:56 AM 55.9 °F - 54.0 °F 93% 30.18 in 10.0 mi Calm Calm - N/A   Clear
4:56 AM 57.0 °F - 55.0 °F 93% 30.19 in 10.0 mi Calm Calm - N/A   Clear
5:44 AM 55.4 °F - 53.6 °F 94% 30.21 in 10.0 mi Calm Calm - N/A   Scattered Clouds
5:52 AM 57.2 °F - 55.4 °F 94% 30.21 in 10.0 mi Calm Calm - N/A   Mostly Cloudy
6:40 AM 57.2 °F - 55.4 °F 94% 30.23 in 10.0 mi Calm Calm - N/A   Scattered Clouds
6:48 AM 57.2 °F - 55.4 °F 94% 30.23 in 10.0 mi Calm Calm - N/A   Mostly Cloudy
6:56 AM 57.0 °F - 55.0 °F 93% 30.23 in 10.0 mi Calm Calm - N/A   Mostly Cloudy
7:05 AM 57.2 °F - 55.4 °F 94% 30.24 in 10.0 mi Calm Calm - N/A   Mostly Cloudy
7:29 AM 59.0 °F - 57.2 °F 94% 30.25 in 10.0 mi Calm Calm - N/A   Partly Cloudy
7:56 AM 62.1 °F - 59.0 °F 90% 30.25 in 10.0 mi Calm Calm - N/A   Clear
8:16 AM 62.6 °F - 60.8 °F 94% 30.26 in 9.0 mi SE 3.5 mph - N/A   Scattered Clouds
8:22 AM 62.6 °F - 60.8 °F 94% 30.26 in 2.5 mi ESE 4.6 mph - N/A   Mostly Cloudy
8:29 AM 62.6 °F - 60.8 °F 94% 30.26 in 1.2 mi Calm Calm - N/A   Mostly Cloudy
8:43 AM 62.6 °F - 62.6 °F 100% 30.27 in 0.2 mi East 4.6 mph - N/A Fog Fog
9:34 AM 64.4 °F - 64.4 °F 100% 30.27 in 1.5 mi Calm Calm - N/A   Overcast
9:40 AM 66.2 °F - 64.4 °F 94% 30.27 in 3.0 mi Calm Calm - N/A   Overcast
9:56 AM 66.9 °F - 64.0 °F 90% 30.26 in 10.0 mi Calm Calm - N/A   Scattered Clouds
10:56 AM 75.9 °F - 64.0 °F 67% 30.25 in 10.0 mi ENE 5.8 mph - N/A   Partly Cloudy
11:56 AM 79.0 °F - 62.1 °F 56% 30.23 in 10.0 mi NE 5.8 mph - N/A   Clear
12:56 PM 81.0 °F 81.6 °F 60.1 °F 49% 30.21 in 10.0 mi ENE 4.6 mph - N/A   Clear
1:56 PM 82.0 °F 82.1 °F 59.0 °F 45% 30.19 in 10.0 mi NNE 10.4 mph - N/A   Clear
2:56 PM 82.9 °F 82.6 °F 57.9 °F 42% 30.18 in 10.0 mi North 9.2 mph - N/A   Clear
3:56 PM 82.9 °F 82.6 °F 57.9 °F 42% 30.17 in 10.0 mi North 5.8 mph - N/A   Clear
4:56 PM 82.0 °F 82.0 °F 57.9 °F 44% 30.16 in 10.0 mi North 4.6 mph - N/A   Clear
5:56 PM 79.0 °F - 60.1 °F 52% 30.16 in 10.0 mi Calm Calm - N/A   Clear
6:56 PM 72.0 °F - 63.0 °F 73% 30.17 in 10.0 mi Calm Calm - N/A   Clear
7:56 PM 68.0 °F - 62.1 °F 81% 30.18 in 10.0 mi Calm Calm - N/A   Clear
8:56 PM 64.9 °F - 62.1 °F 90% 30.19 in 10.0 mi North 4.6 mph - N/A   Clear
9:56 PM 64.0 °F - 61.0 °F 90% 30.20 in 10.0 mi Calm Calm - N/A   Clear
10:56 PM 63.0 °F - 60.1 °F 90% 30.19 in 10.0 mi Calm Calm - N/A   Clear